Погода в Верхних Тальцах

Россия / Республика Бурятия     52°02′22″N   108°55′09″E
темп.,
°C
ветер,
м/с
пор.,
м/с
влажн.,
%
обл.,
%
осадки,
мм/ч
давл.,
гПа
погр.,
м
18 апреля, вс
вс1823:00+5юв014566 0.0 100310
02:00+3з385384 0.0 1005212
05:00+1зсз6126591 0.0 1011970
08:000зсз6115225 0.0 10171092
11:00+2сз79270 0.0 10201459
14:00+3сз69193 0.0 10201770
17:00+2ссз46200 0.0 10211820
20:00−4ссз22340 0.0 102416
19 апреля, пн
пн1923:00−6всв114355 0.0 102511
02:00−6в224249 0.0 102420
05:00−8в224779 0.0 102423
08:00−3в223023 0.0 1022361
11:00+6ююв131881 0.0 1017913
14:00+12зюз15185 0.0 10101818
17:00+13зсз47222 0.0 10061848
20:00+6юв224075 0.0 100711
20 апреля, вт
вт2023:00+4вюв22507 0.0 100618
02:00+2в1151100 0.0 100513
05:000з226177 0.0 100918
08:00+4зсз465379 0.0 1010628
11:00+7сз4440100 0.0 1010916
14:00+10сз33285 0.0 10081437
17:00+10сз33325 0.0 10071272
20:00+4ссз11515 0.0 100810
21 апреля, ср
ср2123:000сз11645 0.0 101015
02:00−1зсз22624 0.0 101034
05:00−3зсз226997 0.0 101135
08:000зсз3450100 0.0 1012509
11:00+6зсз443885 0.0 10101216
14:00+8сз653381 0.0 10091740
17:00+4сз7740100 0.0 10131162
20:00−2сз4976100 0.1 1018693
22 апреля, чт
чт2223:00−2сз5958100 0.4 1021854
02:00−3зсз5858100 0.4 1023800
05:00−5зсз38660 0.0 1026352
08:00−2сз464644 0.0 1028871
11:00+3сз452889 0.0 10271482
14:00+6сз4422100 0.0 10251762
17:00+5ссз4426100 0.0 10271558
20:00+1сз3538100 0.1 1031214